This is the latest recevied weather packets stored in our database for station/object N4QEP-13. If no packets are shown the sender has not sent any weather packets the latest 10 day(s).
| Time | Temp. | Humidity | Pressure | Rain* | Wind** | Luminosity | Snow |
|---|---|---|---|---|---|---|---|
| 1777736757 | 13.89° C | 81% | 1015.3 hPa | 0 mm | - | - | - |
| 1777735830 | 13.33° C | 81% | 1015.2 hPa | 0 mm | - | - | - |
| 1777734910 | 13.33° C | 81% | 1015.1 hPa | 0 mm | - | - | - |
| 1777734008 | 13.33° C | 81% | 1015 hPa | 0 mm | - | - | - |
| 1777733107 | 12.78° C | 81% | 1014.5 hPa | 0 mm | - | - | - |
| 1777732205 | 13.33° C | 82% | 1014.7 hPa | 0 mm | - | - | - |
| 1777731303 | 12.78° C | 82% | 1014.8 hPa | 0 mm | - | - | - |
| 1777730433 | 12.22° C | 82% | 1014.6 hPa | 0 mm | - | - | - |
| 1777729534 | 12.22° C | 82% | 1014.4 hPa | 0 mm | - | - | - |
| 1777728601 | 12.22° C | 82% | 1014.3 hPa | 0 mm | - | - | - |
| 1777727701 | 12.22° C | 82% | 1014.2 hPa | 0.76 mm | - | - | - |
| 1777726833 | 11.67° C | 82% | 1013.8 hPa | 0.76 mm | - | - | - |
| 1777725933 | 11.67° C | 82% | 1013.4 hPa | 0.76 mm | - | - | - |
| 1777725029 | 11.67° C | 82% | 1013.6 hPa | 1.52 mm | - | - | - |
| 1777724130 | 11.67° C | 82% | 1013.3 hPa | 1.52 mm | - | - | - |
| 1777723233 | 11.67° C | 82% | 1013.4 hPa | 1.52 mm | - | - | - |
| 1777722331 | 11.67° C | 82% | 1013.6 hPa | 1.52 mm | - | - | - |
| 1777721425 | 11.67° C | 82% | 1011.7 hPa | 1.02 mm | - | - | - |
| 1777720519 | 11.67° C | 82% | 1012.7 hPa | 1.52 mm | - | - | - |
| 1777719619 | 12.22° C | 82% | 1012.4 hPa | 3.05 mm | - | - | - |
| 1777718720 | 12.22° C | 82% | 1012.8 hPa | 3.05 mm | - | - | - |
| 1777717811 | 12.22° C | 82% | 1013.3 hPa | 3.05 mm | - | - | - |
| 1777716910 | 12.22° C | 82% | 1013.7 hPa | 1.78 mm | - | - | - |
| 1777716014 | 12.22° C | 82% | 1012.2 hPa | 0.51 mm | - | - | - |
| 1777715110 | 12.78° C | 82% | 1012.6 hPa | 1.78 mm | - | - | - |
* Rain latest hour (hover to see other rain measurements)
** Current wind speed in m/s (hover to see current wind gust speed)